TimeEST,TemperatureF,Dew PointF,Humidity,Sea Level PressureIn,VisibilityMPH,Wind Direction,Wind SpeedMPH,Gust SpeedMPH,PrecipitationIn,Events,Conditions,WindDirDegrees,DateUTC
12:53 AM,51.1,46.0,83,30.31,9.0,North,5.8,-,N/A,,Clear,350,2012-11-29 05:53:00
1:53 AM,50.0,46.0,86,30.31,7.0,North,6.9,-,N/A,,Clear,350,2012-11-29 06:53:00
2:53 AM,48.9,46.0,90,30.31,6.0,North,3.5,-,N/A,,Clear,360,2012-11-29 07:53:00
3:53 AM,55.9,50.0,80,30.30,10.0,NE,10.4,-,N/A,,Clear,40,2012-11-29 08:53:00
4:53 AM,55.9,50.0,80,30.31,10.0,NE,9.2,-,N/A,,Clear,40,2012-11-29 09:53:00
5:53 AM,55.9,50.0,80,30.32,10.0,NE,9.2,-,N/A,,Clear,40,2012-11-29 10:53:00
6:53 AM,55.9,50.0,80,30.32,10.0,NE,6.9,-,N/A,,Clear,40,2012-11-29 11:53:00
7:53 AM,57.9,51.1,78,30.34,10.0,NE,9.2,-,N/A,,Clear,50,2012-11-29 12:53:00
8:53 AM,61.0,52.0,72,30.35,10.0,NE,12.7,18.4,N/A,,Clear,50,2012-11-29 13:53:00
9:53 AM,64.0,53.1,67,30.37,10.0,NNE,15.0,18.4,N/A,,Clear,30,2012-11-29 14:53:00
10:53 AM,64.9,53.1,65,30.37,10.0,NE,11.5,20.7,N/A,,Clear,40,2012-11-29 15:53:00
11:53 AM,66.0,54.0,65,30.36,10.0,NE,11.5,19.6,N/A,,Clear,50,2012-11-29 16:53:00
12:53 PM,66.9,54.0,63,30.34,10.0,NE,11.5,19.6,N/A,,Clear,40,2012-11-29 17:53:00
1:53 PM,68.0,55.0,63,30.32,10.0,NNE,10.4,19.6,N/A,,Mostly Cloudy,30,2012-11-29 18:53:00
2:53 PM,64.9,54.0,68,30.31,10.0,NNE,15.0,23.0,N/A,,Partly Cloudy,20,2012-11-29 19:53:00
3:53 PM,64.9,55.0,70,30.31,10.0,NE,10.4,-,N/A,,Clear,50,2012-11-29 20:53:00
4:53 PM,62.1,55.0,78,30.31,10.0,NE,11.5,18.4,N/A,,Partly Cloudy,40,2012-11-29 21:53:00
5:53 PM,61.0,55.0,81,30.31,10.0,NNE,8.1,-,N/A,,Mostly Cloudy,30,2012-11-29 22:53:00
6:53 PM,59.0,55.0,87,30.32,10.0,NNE,5.8,-,N/A,,Clear,30,2012-11-29 23:53:00
7:53 PM,57.9,54.0,87,30.33,9.0,North,4.6,-,N/A,,Clear,350,2012-11-30 00:53:00
8:53 PM,57.0,54.0,89,30.33,8.0,North,4.6,-,N/A,,Clear,350,2012-11-30 01:53:00
9:53 PM,57.0,54.0,89,30.33,7.0,North,3.5,-,N/A,,Partly Cloudy,350,2012-11-30 02:53:00
10:53 PM,57.9,55.0,90,30.32,8.0,North,3.5,-,N/A,,Mostly Cloudy,350,2012-11-30 03:53:00
11:53 PM,57.0,54.0,89,30.32,8.0,North,3.5,-,N/A,,Clear,360,2012-11-30 04:53:00